Voltar ao catálogo

ONEWEB-0007

AtivoComunicaçõesPO
NORAD 44060·PAYLOAD·🇬🇧 United Kingdom

Lançado Feb 27, 2019 de Guiana Space Centre

Loading…

Próximas Passagens (próximas 24 horas)

TLE

AtualizadoSource: CelesTrak SupGP

Época: Sep 14, 2026, 08:20 UTC

1 44060C 19010D   26257.34775880  .00003628  00000+0  96485-2 0  2578
2 44060  87.8983 241.4405 0002263  81.0006  21.5814 13.15546406    14

Acompanhe ONEWEB-0007 em tempo real com AllMySat

Download on the App Store